Weather History for Caldwell, TX

Change the Weather History Date:

Monday, November 19, 2012

  Actual Average (KCLL) Record (KCLL)
Temperature  
Mean Temperature 60 °F 59 °F  
Max Temperature 73 °F 70 °F 86 °F (1950)
Min Temperature 46 °F 49 °F 29 °F (1959)
Degree Days  
Heating Degree Days 6 7  
Month to date heating degree days 91  
Since 1 July heating degree days 128  
Cooling Degree Days 0 1  
Month to date cooling degree days 49  
Year to date cooling degree days 3061  
Growing Degree Days 10 (Base 50)    
Moisture  
Dew Point 50 °F    
Average Humidity 70    
Maximum Humidity 100    
Minimum Humidity 47    
Precipitation  
Precipitation 0.00 in 0.09 in 2.04 in (1992)
Month to date precipitation 2.11  
Year to date precipitation 35.72  
Sea Level Pressure  
Sea Level Pressure 30.24 in    
Wind  
Wind Speed 3 mph (South)    
Max Wind Speed 8 mph    
Max Gust Speed -    
Visibility 10 miles    
Events      
T = Trace of Precipitation, MM = Missing Value Source: NWS Daily Summary

Daily Weather History Graph

Daily Weather History Graph

Search for Another Location

Airport:

Trip Planner

Search our weather history database for the weather conditions in past years. The results will help you decide how hot, cold, wet, or windy it might be!

Date:

Astronomy

Nov. 19, 2012 Rise Set
Actual Time 6:56 AM CST 5:27 PM CST
Civil Twilight 6:30 AM CST 5:53 PM CST
Nautical Twilight 6:01 AM CST 6:22 PM CST
Astronomical Twilight 5:32 AM CST 6:51 PM CST
Moon 12:09 PM CST (11/19) 11:44 PM CST (11/19)
Length of Visible Light 11h 22m
Length of Day
10h 31m
Waxing Crescent, 41% of the Moon is Illuminated
Nov 19
Waxing Crescent
Nov 20
First Quarter
Nov 28
Full
Dec 6
Last Quarter
Dec 13
New

Hourly Weather History & Observations

Time (CST) Temp. Dew Point Humidity Pressure Visibility Wind Dir Wind Speed Gust Speed Precip Events Conditions
12:15 AM 57.2 °F 46.4 °F 67% 30.29 in 10.0 mi SSE 4.6 mph - N/A   Clear
12:35 AM 55.4 °F 46.4 °F 72% 30.28 in 10.0 mi SE 5.8 mph - N/A   Clear
12:55 AM 53.6 °F 46.4 °F 77% 30.28 in 10.0 mi Calm Calm - N/A   Clear
1:15 AM 53.6 °F 46.4 °F 77% 30.28 in 10.0 mi Calm Calm - N/A   Clear
1:35 AM 51.8 °F 46.4 °F 82% 30.28 in 10.0 mi SE 4.6 mph - N/A   Clear
1:55 AM 53.6 °F 46.4 °F 77% 30.27 in 10.0 mi SE 5.8 mph - N/A   Clear
2:15 AM 51.8 °F 46.4 °F 82% 30.27 in 10.0 mi SE 5.8 mph - N/A   Clear
2:35 AM 51.8 °F 46.4 °F 82% 30.26 in 10.0 mi Calm Calm - N/A   Clear
2:55 AM 51.8 °F 48.2 °F 88% 30.26 in 10.0 mi Calm Calm - N/A   Clear
3:15 AM 50.0 °F 46.4 °F 87% 30.25 in 10.0 mi Calm Calm - N/A   Clear
3:35 AM 50.0 °F 46.4 °F 87% 30.26 in 10.0 mi Calm Calm - N/A   Clear
3:55 AM 48.2 °F 44.6 °F 87% 30.26 in 10.0 mi Calm Calm - N/A   Clear
4:15 AM 48.2 °F 46.4 °F 93% 30.25 in 10.0 mi Calm Calm - N/A   Clear
4:35 AM 46.4 °F 46.4 °F 100% 30.26 in 10.0 mi Calm Calm - N/A   Clear
4:55 AM 46.4 °F 46.4 °F 100% 30.27 in 10.0 mi Calm Calm - N/A   Clear
5:15 AM 46.4 °F 44.6 °F 93% 30.27 in 10.0 mi Calm Calm - N/A   Scattered Clouds
5:35 AM 46.4 °F 44.6 °F 93% 30.26 in 10.0 mi Calm Calm - N/A   Scattered Clouds
5:55 AM 46.4 °F 44.6 °F 93% 30.26 in 10.0 mi Calm Calm - N/A   Clear
6:15 AM 48.2 °F 46.4 °F 93% 30.26 in 10.0 mi Calm Calm - N/A   Partly Cloudy
6:35 AM 46.4 °F 44.6 °F 93% 30.27 in 10.0 mi Calm Calm - N/A   Scattered Clouds
6:55 AM 48.2 °F 44.6 °F 87% 30.27 in 10.0 mi Calm Calm - N/A   Scattered Clouds
7:35 AM 50.0 °F 44.6 °F 82% 30.27 in 10.0 mi Calm Calm - N/A   Partly Cloudy
7:55 AM 51.8 °F 46.4 °F 82% 30.29 in 10.0 mi Calm Calm - N/A   Scattered Clouds
8:15 AM 51.8 °F 46.4 °F 82% 30.29 in 10.0 mi Calm Calm - N/A   Mostly Cloudy
8:35 AM 53.6 °F 46.4 °F 77% 30.30 in 10.0 mi Calm Calm - N/A   Mostly Cloudy
8:55 AM 55.4 °F 48.2 °F 77% 30.30 in 10.0 mi SE 4.6 mph - N/A   Mostly Cloudy
9:15 AM 59.0 °F 48.2 °F 67% 30.31 in 10.0 mi SSE 5.8 mph - N/A   Mostly Cloudy
9:35 AM 62.6 °F 48.2 °F 59% 30.30 in 10.0 mi SSE 6.9 mph - N/A   Mostly Cloudy
9:55 AM 62.6 °F 48.2 °F 59% 30.30 in 10.0 mi SE 8.1 mph - N/A   Overcast
10:15 AM 64.4 °F 48.2 °F 56% 30.30 in 10.0 mi SSE 5.8 mph - N/A   Overcast
10:35 AM 64.4 °F 48.2 °F 56% 30.30 in 10.0 mi SE 6.9 mph - N/A   Overcast
10:55 AM 66.2 °F 48.2 °F 52% 30.30 in 10.0 mi SSE 5.8 mph - N/A   Mostly Cloudy
11:15 AM 66.2 °F 48.2 °F 52% 30.29 in 10.0 mi South 5.8 mph - N/A   Overcast
11:35 AM 66.2 °F 50.0 °F 56% 30.28 in 10.0 mi South 5.8 mph - N/A   Overcast
11:55 AM 68.0 °F 48.2 °F 49% 30.28 in 10.0 mi Calm Calm - N/A   Overcast
12:15 PM 69.8 °F 50.0 °F 49% 30.26 in 10.0 mi South 4.6 mph - N/A   Overcast
12:35 PM 71.6 °F 51.8 °F 50% 30.25 in 10.0 mi SW 4.6 mph - N/A   Mostly Cloudy
12:55 PM 71.6 °F 51.8 °F 50% 30.24 in 10.0 mi South 3.5 mph - N/A   Scattered Clouds
1:15 PM 73.4 °F 51.8 °F 47% 30.23 in 10.0 mi SSW 6.9 mph - N/A   Partly Cloudy
1:35 PM 73.4 °F 51.8 °F 47% 30.22 in 10.0 mi SSW 3.5 mph - N/A   Clear
1:55 PM 71.6 °F 51.8 °F 50% 30.20 in 10.0 mi South 5.8 mph - N/A   Clear
2:15 PM 73.4 °F 51.8 °F 47% 30.20 in 10.0 mi SW 6.9 mph - N/A   Clear
2:35 PM 73.4 °F 51.8 °F 47% 30.19 in 10.0 mi SSW 5.8 mph - N/A   Clear
2:55 PM 73.4 °F 51.8 °F 47% 30.18 in 10.0 mi SSW 5.8 mph - N/A   Clear
3:15 PM 73.4 °F 51.8 °F 47% 30.17 in 10.0 mi South 4.6 mph - N/A   Clear
3:35 PM 73.4 °F 51.8 °F 47% 30.18 in 10.0 mi South 5.8 mph - N/A   Clear
3:55 PM 73.4 °F 51.8 °F 47% 30.18 in 10.0 mi South 8.1 mph - N/A   Clear
4:15 PM 73.4 °F 51.8 °F 47% 30.18 in 10.0 mi SSW 4.6 mph - N/A   Partly Cloudy
4:35 PM 71.6 °F 51.8 °F 50% 30.17 in 10.0 mi South 6.9 mph - N/A   Mostly Cloudy
4:55 PM 71.6 °F 51.8 °F 50% 30.18 in 10.0 mi South 4.6 mph - N/A   Overcast
5:15 PM 69.8 °F 51.8 °F 53% 30.18 in 10.0 mi South 3.5 mph - N/A   Mostly Cloudy
5:35 PM 69.8 °F 51.8 °F 53% 30.18 in 10.0 mi South 4.6 mph - N/A   Partly Cloudy
5:55 PM 66.2 °F 51.8 °F 60% 30.20 in 10.0 mi SSW 3.5 mph - N/A   Clear
6:15 PM 66.2 °F 51.8 °F 60% 30.20 in 10.0 mi Calm Calm - N/A   Clear
6:35 PM 64.4 °F 51.8 °F 64% 30.20 in 10.0 mi Calm Calm - N/A   Clear
6:55 PM 64.4 °F 51.8 °F 64% 30.21 in 10.0 mi Calm Calm - N/A   Clear
7:15 PM 62.6 °F 51.8 °F 68% 30.21 in 10.0 mi Calm Calm - N/A   Scattered Clouds
7:35 PM 62.6 °F 53.6 °F 72% 30.21 in 10.0 mi SW 3.5 mph - N/A   Overcast
7:55 PM 62.6 °F 53.6 °F 72% 30.21 in 10.0 mi Calm Calm - N/A   Overcast
8:15 PM 60.8 °F 53.6 °F 77% 30.21 in 10.0 mi Calm Calm - N/A   Overcast
8:35 PM 60.8 °F 53.6 °F 77% 30.22 in 10.0 mi Calm Calm - N/A   Overcast
8:55 PM 62.6 °F 53.6 °F 72% 30.22 in 10.0 mi Calm Calm - N/A   Overcast
9:15 PM 62.6 °F 55.4 °F 77% 30.22 in 10.0 mi Calm Calm - N/A   Overcast
9:35 PM 60.8 °F 55.4 °F 82% 30.22 in 10.0 mi Calm Calm - N/A   Overcast
9:55 PM 60.8 °F 53.6 °F 77% 30.21 in 10.0 mi Calm Calm - N/A   Overcast
10:15 PM 60.8 °F 55.4 °F 82% 30.21 in 10.0 mi Calm Calm - N/A   Mostly Cloudy
10:35 PM 60.8 °F 53.6 °F 77% 30.21 in 10.0 mi Calm Calm - N/A   Partly Cloudy
10:55 PM 57.2 °F 53.6 °F 88% 30.21 in 10.0 mi Calm Calm - N/A   Scattered Clouds
11:15 PM 57.2 °F 53.6 °F 88% 30.21 in 10.0 mi Calm Calm - N/A   Mostly Cloudy
11:35 PM 57.2 °F 53.6 °F 88% 30.21 in 10.0 mi Calm Calm - N/A   Partly Cloudy
11:55 PM 57.2 °F 53.6 °F 88% 30.21 in 10.0 mi Calm Calm - N/A   Clear